Location: Unspecified
(41.1850°N, 73.2650°W)
Time: 02:34:14
(UTC+00:00)

Cosmos 2151 - Pass Details

Date: 14 December 2025
Orbit: 559 x 575 km, 82.5° (Epoch: 14 January)

Event Time Altitude Azimuth Distance (km) Brightness Sun altitude
Rises 21:55:51 0° 349° (N) 2,790 6.3 -6.0°
Reaches altitude 10° 21:58:03 10° 348° (NNW) 1,890 5.4 -6.3°
Maximum altitude 22:02:12 70° 264° (W) 614 3.3 -7.0°
Drops below altitude 10° 22:06:19 10° 181° (S) 1,878 5.9 -7.8°
Sets 22:08:30 0° 179° (S) 2,772 6.7 -8.1°
